User: anonymous   Login
Location: Unspecified
(0.0000°N, 0.0000°E)
Time: 07:49:21
(UTC+00:00)
Language:

SR - Orbit

View from above orbital plane
View from above orbital plane
View from above satellite
View from above satellite

Ground track
Ground track

The orbit data is extracted from the following two-line orbital elements,

1    46U 60007B   18112.92943544 +.00000053 +00000-0 +33677-4 0  9994
2    46 066.6922 011.5084 0211471 355.3390 004.5742 14.49138826025146
Epoch (UTC): 22 April 2018 22:18:23
Eccentricity: 0.0211471
inclination: 66.6922°
perigee height: 578 km
apogee height: 879 km
right ascension of ascending node: 11.5084°
argument of perigee: 355.3390°
revolutions per day: 14.49138826
mean anomaly at epoch: 4.5742°
orbit number at epoch: 2514

The dashed part of the orbit path shows where the satellite is in the earth's shadow,  

DLR